Regional Weather Roundup
Issued by NWS

Home | Current Version | Previous Version | Graphics & Text | Print | Product List | Glossary On
Versions: 1 2 3 4 5 6 7 8 9 10 11 12 13 14 15 16 17 18 19 20 21 22 23 24 25 26 27 28 29 30 31 32 33 34 35 36 37 38 39 40 41 42 43 44 45 46 47 48 49 50
424
ASUS43 KMKX 101111
RWRWI

WISCONSIN REGIONAL WEATHER ROUNDUP
NATIONAL WEATHER SERVICE MILWAUKEE/SULLIVAN WI
500 AM CST WED FEB 10 2016

NOTE: "FAIR" INDICATES FEW OR NO CLOUDS BELOW 12,000 FEET WITH NO
SIGNIFICANT WEATHER AND/OR OBSTRUCTIONS TO VISIBILITY.

WIZ001-002-006>008-014>016-023>028-101200-
NORTHWEST WISCONSIN

CITY           SKY/WX    TMP DP  RH WIND       PRES   REMARKS
SUPERIOR ARPT  CLOUDY    -5 -11  77 NW6       30.13S WCI -18
ASHLAND        CLOUDY     4  -2  76 N13       30.07S WCI -13
HAYWARD        CLOUDY     2  -5  72 NW5       30.03R WCI  -8
SIREN          CLOUDY   -11 -15  80 CALM      30.10S
CUMBERLAND     CLOUDY    -6  -9  84 NW3       30.05R
RICE LAKE      CLOUDY    -3  -8  82 W3        30.07S
CHETEK         CLOUDY    -3  -7  82 CALM      30.06S
LADYSMITH      CLOUDY     1  -4  80 NW5       30.03R WCI  -9
EAU CLAIRE     PTCLDY    -1  -8  72 NW6       30.06S WCI -13
MENOMONIE      CLOUDY    -1  -9  68 W5        30.08S WCI -11
NEW RICHMOND   CLOUDY    -2  -7  78 NW6       30.10R WCI -14
OSCEOLA        CLOUDY     0  -6  76 CALM      30.14R
$$

WIZ003>005-009-010-017-018-101200-
NORTH CENTRAL WISCONSIN

CITY           SKY/WX    TMP DP  RH WIND       PRES   REMARKS
MANITOWISH WTR LGT SNOW   2  -1  83 NW7       29.92S WCI -10
ARBOR VITAE    LGT SNOW   6   0  78 N6        29.91F WCI  -5
WOODRUFF       LGT SNOW   6   0  78 N6        29.91F WCI  -5
RHINELANDER    CLOUDY     4  -3  73 N5        29.91S WCI  -5
EAGLE RIVER    CLOUDY     4  -6  63 N10       29.90S WCI -12
LAND O LAKES   LGT SNOW   4  -1  79 N7        29.91S WCI  -8
PHILLIPS       PTCLDY     1  -5  77 NW6       29.95F WCI -11
TOMAHAWK       CLOUDY     4  -2  76 NW6       29.94S WCI  -7
MEDFORD        CLOUDY     1  -4  78 NW6       29.94F WCI -10
MERRILL        CLOUDY     6  -1  72 N6        29.95F WCI  -5
$$

WIZ029-030-035-036-043>047-101200-
CENTRAL WISCONSIN

CITY           SKY/WX    TMP DP  RH WIND       PRES   REMARKS
WAUSAU         CLOUDY     8  -1  66 N8        29.94F WCI  -4
MOSINEE        NOT AVBL
MARSHFIELD     CLOUDY     5  -4  66 NW10      29.95F WCI -10
STEVENS POINT  CLOUDY     6  -3  68 NW8       29.97F WCI  -7
WAUPACA        CLOUDY    12  -3  51 NW10G16   29.98S WCI  -2
WAUTOMA        CLOUDY     9  -2  61 NW9       29.99S WCI  -4
WISC RAPIDS    CLOUDY     7  -4  60 N8        29.99F WCI  -6
CAMP DOUGLAS   PTCLDY    -3  -6  85 W7        30.01F WCI -16
$$

WIZ011>013-019>022-031-037>040-048>050-101200-
NORTHEAST WISCONSIN

CITY           SKY/WX    TMP DP  RH WIND       PRES   REMARKS
ANTIGO         CLOUDY     4  -4  68 N10       29.91S WCI -11
SHAWANO        CLOUDY    11  -3  54 N7        29.98R WCI   0
OCONTO         CLEAR      6  -4  63 NW3       29.97R
STURGEON BAY   PTCLDY     7  -8  51 NW15      29.94R WCI -11
GREEN BAY      CLEAR      6  -6  57 NW12      29.96R WCI  -9
MANITOWOC      CLEAR      8  -3  61 NW14      29.95R WCI  -8
APPLETON       NOT AVBL
CLINTONVILLE   CLOUDY    10  -4  52 NW12      29.98R WCI  -4
OSHKOSH        CLEAR      9  -3  58 NW12      29.96R WCI  -6
$$

WIZ032>034-041-042-053>061-101200-
SOUTHWEST WISCONSIN

CITY           SKY/WX    TMP DP  RH WIND       PRES   REMARKS
LA CROSSE      CLOUDY     1  -8  66 N5        30.09R WCI  -9
SPARTA         PTCLDY    -8 -12  82 CALM      30.06R
VIROQUA        CLOUDY    -2  -8  74 NW7       30.00S WCI -15
BOSCOBEL       CLOUDY    -4  -8  83 CALM      30.07S
PRAIRIE DU CHI CLOUDY     2  -6  69 CALM      30.08F
PLATTEVILLE    CLEAR      2  -4  75 W5        30.03R WCI  -8
$$

WIZ056-057-062-063-064-067-068-101200-
SOUTH CENTRAL WISCONSIN

CITY           SKY/WX    TMP DP  RH WIND       PRES   REMARKS
REEDSBURG      CLEAR      3  -4  72 W5        30.01S WCI  -7
BARABOO/DELLS  CLEAR      5  -4  68 NW5       30.00S WCI  -4
LONE ROCK      CLEAR      3  -6  66 W7        30.05S WCI  -9
MINERAL POINT  PTCLDY     3  -4  72 NW6       30.00S WCI  -8
MADISON        CLOUDY     7  -1  70 NW9       30.00R WCI  -7
MIDDLETON      MOCLDY     8  -1  69 W7        30.00S WCI  -4
WATERTOWN      CLOUDY    10   1  66 NW14G21   29.97R WCI  -5
MONROE         CLEAR      5   0  78 NW9       29.98S WCI  -9
JANESVILLE     CLOUDY    12   3  67 NW13      29.99R WCI  -3
$$

WIZ051-052-058>065-066-070>072-101200-
SOUTHEAST WISCONSIN

CITY           SKY/WX    TMP DP  RH WIND       PRES   REMARKS
MILWAUKEE      PTCLDY     9  -1  64 NW12      29.95S WCI  -6
WAUKESHA       CLEAR      5   0  78 NW9       29.95S WCI  -9
MILWAUKEE/TIMM CLEAR      9   0  66 W8        29.96R WCI  -4
RACINE         CLEAR      9  -1  64 NW5       29.97S WCI   1
BURLINGTON     CLEAR      5  -2  72 NW12      29.96R WCI -11
KENOSHA        CLEAR      9   0  67 NW9       29.96S WCI  -4
FOND DU LAC    CLEAR      9  -3  58 NW10      29.97R WCI  -5
SHEBOYGAN      CLEAR      8  -4  58 NW14      29.94R WCI  -8
WEST BEND      CLEAR      9   0  66 CALM      29.94R
JUNEAU         CLOUDY    10   0  64 NW8G17    29.97R WCI  -3
$$

LSZ147-162-101200-
LAKE SUPERIOR

STATION/POSITION TIME  TEMP    WIND        PRES    WAVE
                       AIR SEA DIR/SP/G            HT/PER
                 (UTC) (F)     (DEG/KT/KT) (MB)    (FT/S)
DEVILS ISLAND    1100    3     360/ 14/ 19 1020.9R
SAXON HARBOR     1000    9                 1016.9
$$

LMZ867-665-643>646-101200-
LAKE MICHIGAN

STATION/POSITION TIME  TEMP    WIND        PRES    WAVE
                       AIR SEA DIR/SP/G            HT/PER
                 (UTC) (F)     (DEG/KT/KT) (MB)    (FT/S)
CHAMBERS ISLAND  1000    9     300/ 12/ 19 1012.9F
ALGOMA LAKESHORE 1011          310/ 11/ 16   N/A
KEWAUNEE LAKESHO 1000    8     320/  8/ 14 1012.7R
SHEBOYGAN LAKESH 1100    9     320/ 13/ 15 1015.6R
PORT WASHINGTON  1000   10     300/  9/ 13 1014.9S
MILWAUKEE LAKESH 1010   12     310/  9/ 13   N/A
KENOSHA   LAKESH 1100   10     300/ 10/ 13 1014.6S
$$

TC  - TEMPERATURE IN CELSIUS
VSB - VISIBILITY IN STATUTE MILES
WCI - WIND CHILL INDEX
HX  - HEAT INDEX





USA.gov is the U.S. government's official web portal to all federal, state and local government web resources and services.